sat.trackr.live / text

‹ back to catalog

STARLINK-4598

NORAD 53630 · 2022-104AU

PAYLOAD ACTIVE UNKNOWN

§ Identity

Operator
Country
US
Launch date
2022-08-28
Launch site
AFETR
Launch vehicle
Mass (kg)
RCS (m²)

Purposes: comms

External: N2YO · Heavens-Above · Gunter

§ Orbital elements

Epoch: 2026-05-24T23:51:49.267872Z

Period
95.44 min
Inclination
53.2162°
Eccentricity
0.0001571
Mean motion
15.08818543 rev/d
Perigee alt
538.7 km
Apogee alt
540.9 km
Semi-major
6,917.9 km
B*
2.8723e-4
RAAN
241.6472°
Arg perigee
87.5832°
Mean anomaly
272.5340°
Rev number
20,758

§ Raw data

STARLINK-45981 53630U 22104AU  26144.99432023  .00004284  00000+0  28723-3 0  99972 53630  53.2162 241.6472 0001571  87.5832 272.5340 15.08818543207589

JSON: /api/v1/satellites/53630 · /tle

For live sub-satellite position, see the globe view (requires WebGL).

§ Visibility from observer

Set your observer location to see the next 7 days of passes ≥ 10°. The values pass through the URL so the page stays shareable.

No JS? Fill the form by hand. The geolocation button needs JavaScript.